Weather History for Torrington, WY

Change the Weather History Date:

Wednesday, December 26, 2012

  Actual Average Record
Temperature  
Mean Temperature 3 °F 27 °F  
Max Temperature 15 °F 40 °F 59 °F (2005)
Min Temperature -10 °F 14 °F -10 °F (2012)
Degree Days  
Heating Degree Days 62 38  
Month to date heating degree days 887 981  
Since 1 July heating degree days 2230 2564  
Cooling Degree Days 0 0  
Month to date cooling degree days 0 0  
Year to date cooling degree days 1021 678  
Moisture  
Dew Point 3 °F    
Average Humidity 86    
Maximum Humidity 96    
Minimum Humidity 76    
Precipitation  
Precipitation 0.00 in 0.01 in 0.00 in (2014)
Month to date precipitation 0.07 0.32  
Year to date precipitation 7.07 14.16  
Sea Level Pressure  
Sea Level Pressure 29.97 in    
Wind  
Wind Speed 4 mph (ESE)    
Max Wind Speed 14 mph    
Max Gust Speed 16 mph    
Visibility 10 miles    
Events      
T = Trace of Precipitation, MM = Missing Value Source: NWS Daily Summary

Daily Weather History Graph

Daily Weather History Graph

Search for Another Location

Airport:

Trip Planner

Search our weather history database for the weather conditions in past years. The results will help you decide how hot, cold, wet, or windy it might be!

Date:

Astronomy

Dec. 26, 2012 Rise Set
Actual Time 7:23 AM MST 4:31 PM MST
Civil Twilight 6:52 AM MST 5:03 PM MST
Nautical Twilight 6:16 AM MST 5:38 PM MST
Astronomical Twilight 5:42 AM MST 6:12 PM MST
Moon 3:27 PM MST (12/26) 5:48 AM MST (12/26)
Length of Visible Light 10h 11m
Length of Day
9h 07m
Waxing Gibbous, 98% of the Moon is Illuminated
Dec 26
Waxing Gibbous
Dec 28
Full
Jan 4
Last Quarter
Jan 11
New
Jan 18
First Quarter

Hourly Weather History & Observations

Time (MST) Temp. Windchill Dew Point Humidity Pressure Visibility Wind Dir Wind Speed Gust Speed Precip Events Conditions
12:53 AM -9.9 °F - -13.0 °F 86% 30.26 in 10.0 mi Calm Calm - N/A   Clear
1:53 AM -9.0 °F -20.4 °F -11.9 °F 87% 30.24 in 10.0 mi WNW 4.6 mph - N/A   Clear
2:53 AM -9.9 °F -19.2 °F -14.1 °F 82% 30.23 in 10.0 mi West 3.5 mph - N/A   Clear
3:53 AM -9.0 °F - -13.0 °F 83% 30.21 in 10.0 mi Calm Calm - N/A   Clear
4:53 AM -9.0 °F - -13.0 °F 83% 30.19 in 10.0 mi Calm Calm - N/A   Clear
5:53 AM -8.0 °F - -11.9 °F 83% 30.19 in 10.0 mi Calm Calm - N/A   Mostly Cloudy
6:53 AM -7.1 °F - -9.9 °F 87% 30.18 in 10.0 mi Calm Calm - N/A   Overcast
7:27 AM -5.8 °F - -9.4 °F 84% 29.87 in 10.0 mi Calm Calm - N/A   Scattered Clouds
7:53 AM -4.0 °F - -8.0 °F 83% 30.16 in 10.0 mi Calm Calm - N/A   Clear
8:53 AM -0.0 °F - -2.9 °F 88% 30.14 in 8.0 mi Calm Calm - N/A   Mostly Cloudy
9:53 AM 3.0 °F - 1.0 °F 91% 30.13 in 7.0 mi Calm Calm - N/A   Partly Cloudy
10:53 AM 5.0 °F - 3.0 °F 92% 30.08 in 10.0 mi Calm Calm - N/A   Scattered Clouds
11:53 AM 9.0 °F 0.6 °F 6.1 °F 88% 30.04 in 9.0 mi Variable 4.6 mph - N/A   Mostly Cloudy
12:53 PM 10.9 °F 0.2 °F 6.1 °F 81% 30.00 in 10.0 mi East 6.9 mph - N/A   Clear
1:53 PM 12.0 °F -0.4 °F 7.0 °F 80% 29.97 in 10.0 mi East 9.2 mph - N/A   Overcast
2:53 PM 14.0 °F 3.9 °F 9.0 °F 80% 29.96 in 10.0 mi East 6.9 mph - N/A   Overcast
3:53 PM 15.1 °F 6.4 °F 10.0 °F 80% 29.95 in 10.0 mi ESE 5.8 mph - N/A   Overcast
4:53 PM 15.1 °F 6.4 °F 10.0 °F 80% 29.94 in 10.0 mi ESE 5.8 mph - N/A   Overcast
5:53 PM 14.0 °F 6.5 °F 10.9 °F 88% 29.95 in 10.0 mi SE 4.6 mph - N/A   Overcast
6:53 PM 14.0 °F 8.2 °F 12.0 °F 92% 29.94 in 10.0 mi SE 3.5 mph - N/A   Overcast
7:53 PM 14.0 °F 8.2 °F 10.9 °F 88% 29.93 in 10.0 mi East 3.5 mph - N/A   Overcast
8:01 PM 12.2 °F 2.9 °F 10.4 °F 92% 29.70 in 10.0 mi ESE 5.8 mph - N/A   Overcast
8:53 PM 15.1 °F 5.2 °F 12.9 °F 91% 29.90 in 10.0 mi ESE 6.9 mph - N/A   Overcast
9:06 PM 15.8 °F 6.1 °F 12.2 °F 86% 29.69 in 10.0 mi SE 6.9 mph - N/A   Overcast
9:35 PM 15.8 °F 5.1 °F 12.2 °F 86% 29.68 in 10.0 mi ESE 8.1 mph - N/A   Overcast
9:53 PM 14.0 °F 2.0 °F 12.0 °F 92% 29.89 in 10.0 mi ESE 9.2 mph - N/A   Overcast
10:07 PM 14.0 °F 2.0 °F 12.2 °F 93% 29.68 in 10.0 mi ESE 9.2 mph - N/A   Overcast
10:28 PM 12.2 °F -1.8 °F 10.4 °F 92% 29.68 in 10.0 mi ESE 11.5 mph - N/A   Overcast
10:37 PM 12.2 °F -0.2 °F 10.4 °F 92% 29.68 in 10.0 mi ESE 9.2 mph - N/A   Overcast
10:53 PM 12.0 °F -2.0 °F 9.0 °F 88% 29.87 in 10.0 mi ESE 11.5 mph - N/A   Overcast
11:53 PM 10.9 °F -0.8 °F 9.0 °F 92% 29.86 in 10.0 mi ESE 8.1 mph - N/A   Mostly Cloudy